Back to catalog

STARLINK-32908

AliveCommunicationsVLEO
NORAD 63084·PAYLOAD·🇺🇸 United States

Launched Feb 23, 2025 from Vandenberg Space Force Base

Loading…

Next Passes (next 24 hours)

TLE

FreshSource: CelesTrak SupGP

Epoch: Sep 14, 2026, 23:05 UTC

1 63084C 25037H   26257.96229167  .00005000  00000+0  17387-3 0  2572
2 63084  70.0003 235.6194 0002712 264.1921  96.4319 15.29587609    15

Track STARLINK-32908 in real time with AllMySat

Download on the App Store